El Centro, CA

10:12 AM PDT on July 28, 2017 (GMT -0700)
El Centro Naval Air Facility

Weather History for KNJK - November, 2013

Change the Weather History Date:

Thursday, November 28, 2013

  Actual Average Record
Temperature  
Mean Temperature 57 °F -  
Max Temperature 70 °F 69 °F 82 °F (2011)
Min Temperature 44 °F 46 °F 37 °F (2005)
Degree Days  
Heating Degree Days 8    
Growing Degree Days 7 (Base 50)    
Moisture  
Dew Point 39 °F    
Average Humidity 54    
Maximum Humidity 79    
Minimum Humidity 29    
Precipitation  
Precipitation 0.00 in - - ()
Sea Level Pressure  
Sea Level Pressure 30.03 in    
Wind  
Wind Speed 5 mph (West)    
Max Wind Speed 8 mph    
Max Gust Speed -    
Visibility 9 miles    
Events      
Averages and records for this station are not official NWS values.
T = Trace of Precipitation, MM = Missing Value Source: NWS Daily Summary

Daily Weather History Graph

Daily Weather History Graph

Search for Another Location

Airport or City:

Trip Planner

Search our weather history database for the weather conditions in past years. The results will help you decide how hot, cold, wet, or windy it might be!

Date:

Astronomy

Nov. 28, 2013 Rise Set
Actual Time 6:24 AM PST 4:36 PM PST
Civil Twilight 5:58 AM PST 5:03 PM PST
Nautical Twilight 5:27 AM PST 5:33 PM PST
Astronomical Twilight 4:58 AM PST 6:03 PM PST
Moon 1:45 AM PST 1:36 PM PST
Length of Visible Light 11h 05m
Length of Day
10h 11m
Waning Crescent, 21% of the Moon is Illuminated
Nov 28
Waning Crescent
Dec 2
New
Dec 9
First Quarter
Dec 17
Full
Dec 25
Last Quarter

Hourly Weather History & Observations

Time (PST) Temp. Windchill Dew Point Humidity Pressure Visibility Wind Dir Wind Speed Gust Speed Precip Events Conditions
12:56 AM 48.9 °F - 37.9 °F 66% 29.99 in 8.0 mi West 8.1 mph - N/A   Clear
1:56 AM 48.0 °F - 39.0 °F 71% 29.99 in 7.0 mi West 8.1 mph - N/A   Clear
2:56 AM 46.9 °F - 37.9 °F 71% 29.99 in 7.0 mi West 5.8 mph - N/A   Clear
3:56 AM 46.9 °F - 37.9 °F 71% 29.99 in 7.0 mi WSW 4.6 mph - N/A   Clear
4:56 AM 46.9 °F - 37.0 °F 68% 30.01 in 8.0 mi West 8.1 mph - N/A   Clear
5:56 AM 46.9 °F - 37.0 °F 68% 30.01 in - Calm Calm - N/A   Clear
6:56 AM 44.1 °F 39.5 °F 37.9 °F 79% 30.03 in - SW 8.1 mph - N/A   Clear
7:56 AM 50.0 °F - 39.9 °F 68% 30.04 in 10.0 mi Calm Calm - N/A   Clear
8:56 AM 55.9 °F - 41.0 °F 57% 30.06 in 10.0 mi SW 4.6 mph - N/A   Clear
9:56 AM 63.0 °F - 43.0 °F 48% 30.06 in 10.0 mi WSW 5.8 mph - N/A   Clear
10:56 AM 66.9 °F - 36.0 °F 32% 30.05 in 10.0 mi Calm Calm - N/A   Clear
11:56 AM 68.0 °F - 36.0 °F 31% 30.02 in 10.0 mi Variable 4.6 mph - N/A   Clear
12:56 PM 70.0 °F - 36.0 °F 29% 30.01 in 10.0 mi Variable 4.6 mph - N/A   Clear
1:56 PM 70.0 °F - 36.0 °F 29% 30.00 in 10.0 mi North 5.8 mph - N/A   Clear
2:56 PM 70.0 °F - 36.0 °F 29% 30.00 in 10.0 mi NW 3.5 mph - N/A   Clear
3:56 PM 70.0 °F - 37.9 °F 31% 30.01 in 10.0 mi NNW 4.6 mph - N/A   Clear
4:56 PM 64.9 °F - 39.0 °F 39% 30.01 in 10.0 mi Calm Calm - N/A   Clear
5:56 PM 60.1 °F - 42.1 °F 51% 30.04 in 10.0 mi West 4.6 mph - N/A   Clear
6:56 PM 57.9 °F - 41.0 °F 53% 30.05 in 10.0 mi SW 3.5 mph - N/A   Clear
7:56 PM 55.9 °F - 41.0 °F 57% 30.08 in 10.0 mi West 3.5 mph - N/A   Clear
8:56 PM 55.0 °F - 41.0 °F 59% 30.08 in 10.0 mi WNW 4.6 mph - N/A   Clear
9:56 PM 52.0 °F - 41.0 °F 66% 30.09 in 10.0 mi Calm Calm - N/A   Clear
10:56 PM 51.1 °F - 39.9 °F 66% 30.10 in 10.0 mi SW 3.5 mph - N/A   Clear
11:56 PM 50.0 °F - 39.0 °F 66% 30.10 in 10.0 mi WSW 6.9 mph - N/A   Clear